Weather in Vyatskoye

Russia / Udmurt Republic     56°03′22″N   53°52′52″E
temp.,
°C
wind,
m/s
gust,
m/s
humid.,
%
clouds,
%
prec.,
mm/h
press.,
hPa
HPBL,
m
5 march, fri
fri501:00−5wsw9178535 0.4 991724
04:00−7w7149067 0.4 995539
07:00−11w499487 0.0 998176
10:00−10w369193 0.0 1000295
13:00−7wnw3590100 0.0 1001365
16:00−7wnw368896 0.0 1003419
19:00−12wnw34880 0.0 100528
22:00−13wsw34910 0.0 100861
6 march, sat
sat601:00−15wsw35959 0.0 100877
04:00−15sw469845 0.0 101091
07:00−15wsw369795 0.1 1010136
10:00−11w359497 0.5 1011331
13:00−9wnw3487100 0.3 1012564
16:00−9wnw248796 0.3 1012471
19:00−14w129387 0.0 101320
22:00−17w339375 0.0 101326
7 march, sun
sun701:00−19wsw22980 0.0 101220
04:00−19ssw229939 0.1 101220
07:00−18ssw229899 0.1 101121
10:00−15sw239396 0.2 1011231
13:00−12w238999 0.1 1010384
16:00−12wsw2389100 0.1 1009428
19:00−17ssw229786 0.0 100920
22:00−18s239963 0.0 100920
8 march, mon
mon801:00−19sse349879 0.0 100741
04:00−16se599589 0.1 1005237
07:00−12sse61195100 1.1 1001577
10:00−9s61094100 2.6 1000689
13:00−5wsw7984100 0.8 1000838
16:00−6sw5108673 0.8 1001790
19:00−10ssw368948 0.0 100274
22:00−11se359246 0.0 100189
9 march, tue
tue901:00−8ese61195100 2.1 996468
04:00−5sse31096100 5.7 992568
07:00−9nw5994100 0.6 993317
10:00−7wnw81388100 1.1 999784
13:00−6w7108899 0.1 1004818
16:00−7wsw689099 0.2 1007764
19:00−11sw4895100 0.1 1009172
22:00−13sw4895100 0.2 1011203